Millington, TN

6:38 PM CST on November 21, 2019 (GMT -0600)
Millington Municipal

Weather History for KNQA - October, 2019

Change the Weather History Date:

Monday, October 21, 2019

  Actual Average Record
Temperature  
Mean Temperature 65 °F -  
Max Temperature 73 °F 72 °F 86 °F (2003)
Min Temperature 55 °F 50 °F 33 °F (2006)
Growing Degree Days 15 (Base 50)    
Moisture  
Dew Point 63 °F    
Average Humidity 89    
Maximum Humidity 100    
Minimum Humidity 72    
Precipitation  
Precipitation 0.36 in - - ()
Sea Level Pressure  
Sea Level Pressure 29.74 in    
Wind  
Wind Speed 9 mph ()    
Max Wind Speed 16 mph    
Max Gust Speed 26 mph    
Visibility 9.2 miles    
Events Rain    
Averages and records for this station are not official NWS values.
T = Trace of Precipitation, MM = Missing Value Source: Averaged Metar Reports

Daily Weather History Graph

Daily Weather History Graph

Search for Another Location

Airport or City:

Astronomy

Oct. 21, 2019 Rise Set
Actual Time 7:10 AM CDT 6:16 PM CDT
Civil Twilight 6:44 AM CDT 6:42 PM CDT
Nautical Twilight 6:15 AM CDT 7:12 PM CDT
Astronomical Twilight 5:45 AM CDT 7:41 PM CDT
Moon No Moon Rise 2:21 PM CDT (10/21)
Length of Visible Light 11h 57m
Length of Day
11h 06m
Waning Gibbous, 48% of the Moon is Illuminated
Oct 21
Waning Gibbous
Oct 27
New
Nov 4
First Quarter
Nov 12
Full
Nov 19
Last Quarter

Hourly Weather History & Observations

Time (CDT) Temp. Dew Point Humidity Pressure Visibility Wind Dir Wind Speed Gust Speed Precip Events Conditions
12:15 AM 68.0 °F 62.6 °F 83% 29.75 in 10.0 mi SE 9.2 mph - N/A   Overcast
12:35 AM 66.2 °F 62.6 °F 88% 29.73 in 10.0 mi SE 6.9 mph - N/A   Scattered Clouds
12:55 AM 68.0 °F 64.4 °F 88% 29.72 in 10.0 mi SSE 10.4 mph - N/A   Clear
1:15 AM 69.8 °F 64.4 °F 83% 29.70 in 10.0 mi SSE 15.0 mph 20.7 mph N/A   Scattered Clouds
1:35 AM 69.8 °F 66.2 °F 88% 29.71 in 10.0 mi SSE 10.4 mph 19.6 mph N/A   Partly Cloudy
1:55 AM 69.8 °F 66.2 °F 88% 29.70 in 10.0 mi SSE 12.7 mph 20.7 mph N/A   Mostly Cloudy
2:15 AM 69.8 °F 66.2 °F 88% 29.70 in 10.0 mi SSE 12.7 mph 21.9 mph N/A   Mostly Cloudy
2:35 AM 69.8 °F 66.2 °F 88% 29.69 in 10.0 mi SSE 10.4 mph 18.4 mph N/A   Mostly Cloudy
2:55 AM 69.8 °F 66.2 °F 88% 29.70 in 10.0 mi SSE 10.4 mph 17.3 mph N/A   Overcast
3:15 AM 71.6 °F 66.2 °F 83% 29.69 in 10.0 mi SSE 10.4 mph 17.3 mph N/A   Overcast
3:35 AM 71.6 °F 66.2 °F 83% 29.68 in 10.0 mi SSE 9.2 mph 19.6 mph N/A   Overcast
3:55 AM 71.6 °F 66.2 °F 83% 29.67 in 10.0 mi SSE 11.5 mph 17.3 mph N/A   Overcast
4:15 AM 71.6 °F 68.0 °F 88% 29.66 in 10.0 mi SSE 9.2 mph 18.4 mph N/A   Overcast
4:35 AM 71.6 °F 68.0 °F 88% 29.66 in 10.0 mi SSE 11.5 mph 19.6 mph N/A   Overcast
4:55 AM 71.6 °F 68.0 °F 88% 29.67 in 10.0 mi South 10.4 mph 24.2 mph N/A   Overcast
5:15 AM 71.6 °F 68.0 °F 88% 29.67 in 10.0 mi SSE 9.2 mph 19.6 mph N/A   Overcast
5:35 AM 71.6 °F 68.0 °F 88% 29.66 in 10.0 mi Variable 6.9 mph 18.4 mph N/A   Overcast
5:55 AM 71.6 °F 68.0 °F 88% 29.65 in 9.0 mi South 10.4 mph 18.4 mph 0.01 in   Overcast
6:15 AM 71.6 °F 68.0 °F 88% 29.67 in 10.0 mi South 10.4 mph 20.7 mph N/A   Overcast
6:35 AM 73.4 °F 68.0 °F 83% 29.68 in 10.0 mi SSW 13.8 mph 23.0 mph N/A   Overcast
6:55 AM 64.4 °F 62.6 °F 94% 29.74 in 1.8 mi WSW 16.1 mph 26.5 mph 0.30 in   Overcast
7:15 AM 64.4 °F 62.6 °F 94% 29.75 in 8.0 mi SW 12.7 mph 21.9 mph N/A   Overcast
7:35 AM 64.4 °F 62.6 °F 94% 29.74 in 6.0 mi South 8.1 mph - N/A   Overcast
7:55 AM 64.4 °F 62.6 °F 94% 29.73 in 8.0 mi SE 6.9 mph - 0.05 in   Mostly Cloudy
8:15 AM 64.4 °F 62.6 °F 94% 29.73 in 6.0 mi SE 9.2 mph - N/A   Mostly Cloudy
8:35 AM 64.4 °F 62.6 °F 94% 29.73 in 9.0 mi SSE 6.9 mph 16.1 mph N/A   Mostly Cloudy
8:50 AM 64.4 °F 62.6 °F 94% 29.74 in 10.0 mi SSE 11.5 mph - N/A Rain Light Rain
9:50 AM 62.6 °F 62.6 °F 100% 29.75 in 5.0 mi SSE 11.5 mph - N/A Rain Light Rain
10:50 AM 62.6 °F 62.6 °F 100% 29.73 in 7.0 mi SSE 12.7 mph 18.4 mph N/A   Overcast
11:50 AM 62.6 °F 60.8 °F 94% 29.76 in 6.0 mi SE 13.8 mph 21.9 mph N/A Rain Light Rain
12:50 PM 64.4 °F 62.6 °F 94% 29.78 in 10.0 mi South 9.2 mph - N/A   Mostly Cloudy
1:50 PM 64.4 °F 62.6 °F 94% 29.76 in 10.0 mi South 10.4 mph - N/A   Overcast
2:50 PM 64.4 °F 60.8 °F 88% 29.76 in 10.0 mi SSW 12.7 mph 19.6 mph N/A   Overcast
3:50 PM 66.2 °F 60.8 °F 83% 29.77 in 10.0 mi SSW 11.5 mph 18.4 mph N/A   Overcast
4:50 PM 66.2 °F 60.8 °F 83% 29.77 in 10.0 mi South 9.2 mph 17.3 mph N/A   Overcast
5:50 PM 66.2 °F 60.8 °F 83% 29.78 in 10.0 mi SSW 10.4 mph 17.3 mph N/A   Mostly Cloudy
6:50 PM 64.4 °F 60.8 °F 88% 29.79 in 10.0 mi SSW 5.8 mph - N/A   Overcast
7:50 PM 62.6 °F 60.8 °F 94% 29.82 in 10.0 mi SSW 5.8 mph - N/A   Mostly Cloudy
8:50 PM 60.8 °F 59.0 °F 94% 29.85 in 10.0 mi SSW 8.1 mph - N/A   Clear
9:50 PM 59.0 °F 55.4 °F 88% 29.88 in 10.0 mi SW 5.8 mph - N/A   Clear
10:50 PM 57.2 °F 51.8 °F 82% 29.91 in 10.0 mi WSW 9.2 mph - N/A   Clear
11:50 PM 55.4 °F 46.4 °F 72% 29.91 in 10.0 mi West 8.1 mph - N/A   Clear